レモン彗星

P/2023 JN16 ( Lemmon ) 2020

English version
Home page
Updated on August 21, 2024

---------------------------------------------------------------------

・ プロフィール

・ 軌道要素

                    Epoch = 2020 July 10.0 TT
     T = 2020 July 25.06877 TT        Peri. = 352.62469
     e = 0.1467868                    Node  =  11.89853 2000.0
     q = 2.2997810 AU                 Incl. =   3.70315
       a =  2.6954354 AU   n = 0.22272075   P =   4.42 years

・ 光度変化

        H = 19.0  G = 0.15

---------------------------------------------------------------------

軌道要素は、CBET 5430に掲載されたものです。
光度グラフはComet for Windowsで作成したものです。

---------------------------------------------------------------------

Copyright(C) Seiichi Yoshida (comet@aerith.net). All rights reserved.